Regional Weather Roundup
Issued by NWS

Home | Current Version | Previous Version | Text Only | Print | Product List | Glossary Off
Versions: 1 2 3 4 5 6 7 8 9 10 11 12 13 14 15 16 17 18 19 20 21 22 23 24 25 26 27 28 29 30 31 32 33 34 35 36 37 38 39 40 41 42 43 44 45 46 47 48 49 50

381
ASUS44 KLIX 212201
RWRLA
LOUISIANA WEATHER ROUNDUP
NATIONAL WEATHER SERVICE NEW ORLEANS LA
400 PM CST FRI NOV 21 2014

NOTE: "FAIR" INDICATES FEW OR NO CLOUDS BELOW 12,000 FEET WITH NO
      SIGNIFICANT WEATHER AND/OR OBSTRUCTIONS TO VISIBILITY.
      SKY/WX - SKY CONDITION AND SIGNIFICANT WEATHER.
      TMP - AIR TEMPERATURE.    DP   - DEWPOINT TEMPERATURE.
      RH  - RELATIVE HUMIDITY.  PRES - PRESSURE.
      HX  - HEAT INDEX.         WCI  - WIND CHILL INDEX.

*  THESE STATIONS ARE NOT NWS OR FAA STATIONS AND ARE NOT UNDER
   NWS QUALITY CONTROL.

LAZ040-048-061>063-065-066-069-212300-
SOUTHEAST LOUISIANA

CITY           SKY/WX    TMP DP  RH WIND       PRES   REMARKS
N.O. AUDUBON     N/A     67  55  65 MISG        N/A
N.O. INTL ARPT MOSUNNY   66  53  63 E14G20    30.25R
N.O. LAKEFRONT SUNNY     65  54  67 E16       30.26R
N.O. DOWNTOWN* FAIR      64  52  63 NE6       30.26R
SLIDELL        SUNNY     67  51  56 E10       30.26R
BATON ROUGE    MOSUNNY   68  47  46 E14G22    30.23R
BOOTHVILLE     SUNNY     66  52  60 E14       30.25R
BELLE CHASSE   MOSUNNY   68  48  48 E13       30.25R
BOGALUSA*        N/A     70  40  33 SE12      30.27R
NEW ROADS*     FAIR      68  47  46 E9        30.22R
GONZALES*      NOT AVBL
HAMMOND*       SUNNY     68  46  45 SE14G23   30.27R
HOUMA*         SUNNY     66  50  55 E17       30.23S
PORT FOURCHON* CLEAR     68  52  56 E15G22    30.25S

$$

LAZ041-044-053-054-212300-
SOUTHWEST LOUISIANA

CITY           SKY/WX    TMP DP  RH WIND       PRES   REMARKS
LAKE CHARLES   CLOUDY    69  54  58 SE16      30.17R
LAFAYETTE      SUNNY     71  41  33 VRB7      30.20R
PATTERSON      SUNNY     68  46  45 SE10G20   30.24R
SALT POINT       N/A     68  52  56 SE9       30.21R
NEW IBERIA     SUNNY     71  42  35 SE14      30.21R
CHENAULT AIRPK NOT AVBL

$$

LAZ027-028-212300-
CENTRAL LOUISIANA

CITY           SKY/WX    TMP DP  RH WIND       PRES   REMARKS
FORT POLK      CLOUDY    66  50  57 SE3       30.17R
ALEXANDRIA INT CLOUDY    69  44  40 SE10      30.18R
ALEXANDRIA     CLOUDY    70  45  40 SE8       30.20R

$$

LAZ001-002-212300-
NORTHWEST LOUISIANA

CITY           SKY/WX    TMP DP  RH WIND       PRES   REMARKS
SHREVEPORT     CLOUDY    60  57  89 CALM      30.16R
BARKSDALE AFB  NOT AVBL
DTN SHREVEPORT LGT RAIN  59  55  87 SE3       30.17S

$$

LAZ014-016-212300-
NORTHEAST LOUISIANA

CITY           SKY/WX    TMP DP  RH WIND       PRES   REMARKS
MONROE         PTSUNNY   68  45  43 VRB7      30.21R
TALLULAH       CLOUDY    67  47  48 SE12      30.23S

$$




USA.gov is the U.S. government's official web portal to all federal, state and local government web resources and services.